Vienna, OH

7:00 AM EST on February 09, 2016 (GMT -0500)
Youngstown-Warren Regional

Weather History for KYNG - January, 2013

Change the Weather History Date:

Thursday, January 24, 2013

  Actual Average Record
Temperature  
Mean Temperature 11 °F 26 °F  
Max Temperature 19 °F 33 °F 61 °F (1950)
Min Temperature 3 °F 19 °F -18 °F (1963)
Degree Days  
Heating Degree Days 54 39  
Month to date heating degree days 860 942  
Since 1 July heating degree days 3123 3348  
Cooling Degree Days 0 0  
Month to date cooling degree days 0 0  
Year to date cooling degree days 0 0  
Moisture  
Dew Point 4 °F    
Average Humidity 68    
Maximum Humidity 91    
Minimum Humidity 45    
Precipitation  
Precipitation 0.03 in 0.07 in - ()
Month to date precipitation 0.84 2.02  
Year to date precipitation 0.84 2.02  
Snow  
Snow 0.80 in 0.60 in - ()
Month to date snowfall 5.5 13.0  
Since 1 July snowfall 32.7 32.4  
Snow Depth 2.00 in    
Sea Level Pressure  
Sea Level Pressure 30.32 in    
Wind  
Wind Speed 6 mph (NW)    
Max Wind Speed 21 mph    
Max Gust Speed 25 mph    
Visibility 7 miles    
Events Snow    
T = Trace of Precipitation, MM = Missing Value Source: NWS Daily Summary

Daily Weather History Graph

Daily Weather History Graph

Search for Another Location

Airport or City:

Trip Planner

Search our weather history database for the weather conditions in past years. The results will help you decide how hot, cold, wet, or windy it might be!

Date:

Astronomy

Jan. 24, 2013 Rise Set
Actual Time 7:40 AM EST 5:29 PM EST
Civil Twilight 7:10 AM EST 5:59 PM EST
Nautical Twilight 6:37 AM EST 6:32 PM EST
Astronomical Twilight 6:04 AM EST 7:05 PM EST
Moon 3:30 PM EST (1/24) 5:37 AM EST (1/24)
Length of Visible Light 10h 48m
Length of Day
9h 48m
Waxing Gibbous, 94% of the Moon is Illuminated
Jan 24
Waxing Gibbous
Jan 26
Full
Feb 3
Last Quarter
Feb 10
New
Feb 17
First Quarter

Hourly Weather History & Observations

Time (EST) Temp. Windchill Dew Point Humidity Pressure Visibility Wind Dir Wind Speed Gust Speed Precip Events Conditions
12:40 AM 5.0 °F -2.1 °F 1.4 °F 85% 30.02 in 5.0 mi South 3.5 mph - 0.00 in Snow Light Snow
12:51 AM 3.9 °F - 1.0 °F 88% 30.09 in 6.0 mi Calm Calm - N/A Snow Light Snow
1:29 AM 8.6 °F - 5.0 °F 85% 30.02 in 8.0 mi Calm Calm - 0.00 in Snow Light Snow
1:51 AM 8.1 °F 1.4 °F 3.0 °F 80% 30.10 in 8.0 mi SSW 3.5 mph - 0.00 in Snow Light Snow
2:51 AM 10.0 °F - 7.0 °F 87% 30.12 in 5.0 mi Calm Calm - 0.00 in Snow Light Snow
3:01 AM 10.4 °F - 6.8 °F 85% 30.05 in 2.0 mi Calm Calm - 0.00 in Snow Light Snow
3:04 AM 10.4 °F - 6.8 °F 85% 30.05 in 1.5 mi Calm Calm - 0.00 in Snow Light Snow
3:39 AM 12.2 °F 2.9 °F 8.6 °F 85% 30.06 in 1.0 mi West 5.8 mph - 0.01 in Snow Light Snow
3:51 AM 12.0 °F 2.7 °F 8.1 °F 84% 30.14 in 1.2 mi WNW 5.8 mph - 0.01 in Snow Light Snow
4:38 AM 12.2 °F 2.9 °F 8.6 °F 85% 30.10 in 1.8 mi WNW 5.8 mph - 0.02 in Snow Light Snow
4:51 AM 12.9 °F 2.6 °F 9.0 °F 84% 30.18 in 1.5 mi WNW 6.9 mph - 0.02 in Snow Light Snow
5:21 AM 12.2 °F 1.7 °F 8.6 °F 85% 30.13 in 3.0 mi NW 6.9 mph - 0.01 in Snow Light Snow
5:51 AM 10.0 °F 3.6 °F 6.1 °F 84% 30.24 in 8.0 mi NW 3.5 mph - 0.01 in Snow Light Snow
6:51 AM 8.1 °F 1.4 °F 5.0 °F 87% 30.28 in 9.0 mi West 3.5 mph - N/A   Scattered Clouds
7:51 AM 7.0 °F -1.7 °F 3.0 °F 84% 30.33 in 9.0 mi West 4.6 mph - N/A   Scattered Clouds
8:51 AM 10.9 °F 2.9 °F 6.1 °F 81% 30.37 in 10.0 mi West 4.6 mph - N/A   Mostly Cloudy
9:08 AM 12.2 °F 1.7 °F 6.8 °F 79% 30.31 in 0.5 mi NW 6.9 mph - 0.00 in Snow Snow
9:34 AM 12.2 °F 1.7 °F 8.6 °F 85% 30.33 in 0.8 mi NW 6.9 mph - 0.00 in Snow Light Snow
9:51 AM 14.0 °F 3.9 °F 10.0 °F 84% 30.42 in 1.0 mi NW 6.9 mph - N/A Snow Light Snow
9:56 AM 14.0 °F 3.9 °F 10.4 °F 86% 30.35 in 7.0 mi NW 6.9 mph - 0.00 in Snow Light Snow
10:51 AM 17.1 °F 4.3 °F 9.0 °F 71% 30.47 in 10.0 mi North 11.5 mph - 0.00 in   Scattered Clouds
11:51 AM 18.0 °F 4.8 °F -0.9 °F 44% 30.51 in 10.0 mi NNW 12.7 mph - N/A   Scattered Clouds
12:51 PM 19.0 °F 6.8 °F 1.0 °F 46% 30.50 in 10.0 mi NNW 11.5 mph 20.7 mph N/A   Scattered Clouds
1:51 PM 18.0 °F 3.1 °F 1.0 °F 48% 30.50 in 10.0 mi NNW 16.1 mph 21.9 mph N/A   Scattered Clouds
2:51 PM 17.1 °F 1.5 °F 1.0 °F 50% 30.53 in 10.0 mi NNW 17.3 mph - N/A   Scattered Clouds
3:51 PM 17.1 °F 3.6 °F 1.9 °F 52% 30.54 in 10.0 mi North 12.7 mph - N/A   Mostly Cloudy
4:51 PM 14.0 °F 1.2 °F 1.9 °F 59% 30.56 in 10.0 mi NNW 10.4 mph - N/A   Mostly Cloudy
5:51 PM 12.9 °F 1.6 °F 1.9 °F 62% 30.57 in 10.0 mi NNW 8.1 mph - N/A   Scattered Clouds
6:51 PM 9.0 °F - 1.0 °F 70% 30.59 in 10.0 mi Calm Calm - N/A   Scattered Clouds
7:51 PM 8.1 °F - 1.9 °F 76% 30.59 in 10.0 mi Calm Calm - N/A   Scattered Clouds
8:51 PM 7.0 °F - 1.9 °F 80% 30.56 in 10.0 mi Calm Calm - N/A   Mostly Cloudy
9:51 PM 3.9 °F - -0.9 °F 80% 30.56 in 10.0 mi Calm Calm - N/A   Overcast
10:51 PM 3.9 °F -3.4 °F -0.0 °F 84% 30.55 in 10.0 mi South 3.5 mph - N/A   Overcast
11:51 PM 9.0 °F 0.6 °F 3.0 °F 77% 30.55 in 10.0 mi South 4.6 mph - N/A   Overcast